• In Germany
  • List of Countries
  • For 7 days
  • Water Temperature
  • Satellite Maps
  • Weather Map
  • Weather Widgets
  • user-avatar
    Login

    Hourly Weather Lubango

    Today, 23 September, Saturday

    Time Temperature Precipitation Wind Pressure Humidity
    00:00 +16°C° 0 mm 1 mps 609 mmHg 59%
    01:00 +16°C° 0 mm 1 mps 609 mmHg 60%
    02:00 +15°C° 0 mm 1 mps 609 mmHg 60%
    03:00 +15°C° 0 mm 1 mps 608 mmHg 61%
    04:00 +15°C° 0 mm 1 mps 608 mmHg 61%
    05:00 +16°C° 0 mm 1 mps 609 mmHg 57%
    06:00 +18°C° 0 mm 1 mps 609 mmHg 53%
    07:00 +20°C° 0 mm 1 mps 610 mmHg 44%
    08:00 +23°C° 0 mm 2 mps 612 mmHg 36%
    09:00 +26°C° 0 mm 3 mps 613 mmHg 28%
    10:00 +29°C° 0 mm 5 mps 614 mmHg 20%
    11:00 +32°C° 0 mm 4 mps 614 mmHg 18%
    12:00 +33°C° 0 mm 4 mps 614 mmHg 16%
    13:00 +33°C° 0 mm 4 mps 614 mmHg 17%
    14:00 +32°C° 0 mm 4 mps 613 mmHg 17%
    15:00 +32°C° 0 mm 4 mps 613 mmHg 18%
    16:00 +32°C° 0 mm 4 mps 612 mmHg 18%
    17:00 +27°C° 0 mm 3 mps 612 mmHg 28%
    18:00 +24°C° 0 mm 3 mps 611 mmHg 38%
    19:00 +20°C° 0 mm 2 mps 610 mmHg 47%
    20:00 +20°C° 0 mm 1 mps 610 mmHg 52%
    21:00 +18°C° 0 mm 1 mps 610 mmHg 58%
    22:00 +16°C° 0 mm 1 mps 610 mmHg 63%
    23:00 +16°C° 0 mm 1 mps 610 mmHg 64%

    Tomorrow, 24 September, Sunday

    Time Temperature Precipitation Wind Pressure Humidity
    00:00 +15°C° 0 mm 1 mps 610 mmHg 66%
    01:00 +14°C° 0 mm 0 mps 609 mmHg 67%
    02:00 +14°C° 0 mm 0 mps 609 mmHg 66%
    03:00 +13°C° 0 mm 0 mps 609 mmHg 66%
    04:00 +13°C° 0 mm 0 mps 609 mmHg 65%
    05:00 +15°C° 0 mm 1 mps 610 mmHg 59%
    06:00 +16°C° 0 mm 1 mps 610 mmHg 54%
    07:00 +18°C° 0 mm 1 mps 611 mmHg 48%
    08:00 +21°C° 0 mm 2 mps 612 mmHg 39%
    09:00 +25°C° 0 mm 3 mps 613 mmHg 30%
    10:00 +29°C° 0 mm 4 mps 615 mmHg 21%
    11:00 +30°C° 0 mm 4 mps 614 mmHg 20%
    12:00 +31°C° 0 mm 3 mps 614 mmHg 18%
    13:00 +33°C° 0 mm 3 mps 614 mmHg 16%
    14:00 +31°C° 0 mm 3 mps 613 mmHg 18%
    15:00 +30°C° 0 mm 3 mps 612 mmHg 20%
    16:00 +30°C° 0 mm 4 mps 611 mmHg 22%
    17:00 +26°C° 0 mm 3 mps 611 mmHg 33%
    18:00 +22°C° 0 mm 3 mps 610 mmHg 44%
    19:00 +19°C° 0 mm 3 mps 609 mmHg 55%
    20:00 +18°C° 0 mm 2 mps 610 mmHg 60%
    21:00 +17°C° 0 mm 2 mps 610 mmHg 66%
    22:00 +16°C° 0 mm 1 mps 610 mmHg 71%
    23:00 +15°C° 0 mm 1 mps 609 mmHg 73%

    Day after tomorrow, 25 September, Monday

    Time Temperature Precipitation Wind Pressure Humidity
    00:00 +14°C° 0 mm 1 mps 609 mmHg 75%
    01:00 +14°C° 0 mm 1 mps 608 mmHg 77%
    02:00 +13°C° 0 mm 1 mps 608 mmHg 77%
    03:00 +13°C° 0 mm 1 mps 608 mmHg 77%
    04:00 +13°C° 0 mm 1 mps 607 mmHg 77%
    05:00 +14°C° 0 mm 1 mps 608 mmHg 70%
    06:00 +15°C° 0 mm 1 mps 609 mmHg 63%
    07:00 +16°C° 0 mm 1 mps 610 mmHg 56%
    08:00 +20°C° 0 mm 1 mps 611 mmHg 46%
    09:00 +24°C° 0 mm 2 mps 612 mmHg 35%
    10:00 +27°C° 0 mm 3 mps 613 mmHg 24%
    11:00 +28°C° 0 mm 3 mps 613 mmHg 22%
    12:00 +30°C° 0 mm 3 mps 613 mmHg 20%
    13:00 +31°C° 0 mm 3 mps 612 mmHg 18%
    14:00 +30°C° 0 mm 3 mps 612 mmHg 20%
    15:00 +29°C° 0 mm 4 mps 611 mmHg 23%
    16:00 +28°C° 0 mm 4 mps 610 mmHg 25%
    17:00 +25°C° 0 mm 3 mps 609 mmHg 36%
    18:00 +21°C° 0 mm 3 mps 609 mmHg 47%
    19:00 +18°C° 0 mm 2 mps 608 mmHg 58%
    20:00 +17°C° 0 mm 2 mps 608 mmHg 62%
    21:00 +16°C° 0 mm 1 mps 608 mmHg 66%
    22:00 +15°C° 0 mm 1 mps 608 mmHg 71%
    23:00 +15°C° 0 mm 1 mps 608 mmHg 72%

    26 September, Tuesday

    Time Temperature Precipitation Wind Pressure Humidity
    00:00 +14°C° 0 mm 1 mps 607 mmHg 73%
    01:00 +14°C° 0 mm 1 mps 607 mmHg 73%
    02:00 +13°C° 0 mm 1 mps 607 mmHg 74%
    03:00 +13°C° 0 mm 1 mps 606 mmHg 74%
    04:00 +12°C° 0 mm 0 mps 606 mmHg 74%
    05:00 +13°C° 0 mm 0 mps 607 mmHg 67%
    06:00 +14°C° 0 mm 0 mps 608 mmHg 61%
    07:00 +15°C° 0 mm 0 mps 609 mmHg 54%
    08:00 +21°C° 0 mm 1 mps 610 mmHg 44%
    09:00 +24°C° 0 mm 2 mps 611 mmHg 33%
    10:00 +27°C° 0 mm 2 mps 613 mmHg 23%
    11:00 +28°C° 0 mm 2 mps 612 mmHg 21%
    12:00 +30°C° 0 mm 2 mps 612 mmHg 19%
    13:00 +31°C° 0 mm 3 mps 612 mmHg 17%
    14:00 +30°C° 0 mm 3 mps 611 mmHg 21%
    15:00 +29°C° 0 mm 4 mps 610 mmHg 24%
    16:00 +28°C° 0 mm 4 mps 609 mmHg 27%
    17:00 +25°C° 0 mm 3 mps 609 mmHg 38%
    18:00 +21°C° 0 mm 3 mps 608 mmHg 48%
    19:00 +18°C° 0 mm 2 mps 608 mmHg 58%
    20:00 +17°C° 0 mm 2 mps 608 mmHg 63%
    21:00 +16°C° 0 mm 1 mps 608 mmHg 68%
    22:00 +15°C° 0 mm 1 mps 608 mmHg 72%
    23:00 +14°C° 0 mm 1 mps 608 mmHg 73%

    27 September, Wednesday

    Time Temperature Precipitation Wind Pressure Humidity
    00:00 +14°C° 0 mm 1 mps 607 mmHg 74%
    01:00 +13°C° 0 mm 1 mps 607 mmHg 74%
    02:00 +13°C° 0 mm 1 mps 607 mmHg 76%
    03:00 +12°C° 0 mm 1 mps 606 mmHg 77%
    04:00 +12°C° 0 mm 1 mps 606 mmHg 78%
    05:00 +13°C° 0 mm 1 mps 607 mmHg 72%
    06:00 +13°C° 0 mm 0 mps 608 mmHg 65%
    07:00 +14°C° 0 mm 0 mps 609 mmHg 59%
    08:00 +20°C° 0 mm 1 mps 610 mmHg 48%
    09:00 +23°C° 0 mm 1 mps 612 mmHg 36%
    10:00 +26°C° 0 mm 1 mps 613 mmHg 25%
    11:00 +28°C° 0 mm 2 mps 613 mmHg 22%
    12:00 +29°C° 0 mm 2 mps 612 mmHg 20%
    13:00 +30°C° 0 mm 2 mps 612 mmHg 18%
    14:00 +29°C° 0 mm 3 mps 611 mmHg 20%
    15:00 +28°C° 0 mm 4 mps 611 mmHg 23%
    16:00 +27°C° 0 mm 4 mps 610 mmHg 25%
    17:00 +25°C° 0 mm 4 mps 610 mmHg 35%
    18:00 +21°C° 0 mm 3 mps 609 mmHg 45%
    19:00 +18°C° 0 mm 2 mps 609 mmHg 55%
    20:00 +17°C° 0 mm 2 mps 609 mmHg 60%
    21:00 +16°C° 0 mm 2 mps 609 mmHg 66%
    22:00 +15°C° 0 mm 1 mps 609 mmHg 72%
    23:00 +14°C° 0 mm 1 mps 608 mmHg 74%

    28 September, Thursday

    Time Temperature Precipitation Wind Pressure Humidity
    00:00 +14°C° 0 mm 1 mps 608 mmHg 76%
    01:00 +13°C° 0 mm 1 mps 607 mmHg 78%
    02:00 +13°C° 0 mm 1 mps 607 mmHg 79%
    03:00 +12°C° 0 mm 1 mps 607 mmHg 79%
    04:00 +12°C° 0 mm 1 mps 607 mmHg 79%
    05:00 +13°C° 0 mm 1 mps 608 mmHg 73%
    06:00 +13°C° 0 mm 0 mps 609 mmHg 66%
    07:00 +14°C° 0 mm 0 mps 610 mmHg 59%
    08:00 +20°C° 0 mm 1 mps 611 mmHg 47%
    09:00 +23°C° 0 mm 1 mps 612 mmHg 35%
    10:00 +26°C° 0 mm 2 mps 614 mmHg 23%
    11:00 +28°C° 0 mm 2 mps 614 mmHg 20%
    12:00 +29°C° 0 mm 2 mps 613 mmHg 18%
    13:00 +31°C° 0 mm 3 mps 613 mmHg 16%
    14:00 +30°C° 0 mm 3 mps 612 mmHg 17%
    15:00 +29°C° 0 mm 4 mps 612 mmHg 19%
    16:00 +28°C° 0 mm 4 mps 611 mmHg 21%
    17:00 +25°C° 0 mm 4 mps 610 mmHg 30%
    18:00 +21°C° 0 mm 3 mps 610 mmHg 39%
    19:00 +19°C° 0 mm 3 mps 609 mmHg 48%
    20:00 +17°C° 0 mm 2 mps 609 mmHg 53%
    21:00 +16°C° 0 mm 2 mps 609 mmHg 58%
    22:00 +15°C° 0 mm 1 mps 609 mmHg 63%
    23:00 +15°C° 0 mm 1 mps 609 mmHg 65%
    Show more